This is the latest recevied weather packets stored in our database for station/object KI5MKI. If no packets are shown the sender has not sent any weather packets the latest 10 day(s).
| Time | Temp. | Humidity | Pressure | Rain* | Wind** | Luminosity | Snow |
|---|---|---|---|---|---|---|---|
| 1777824394 | 23.89° C | 47% | 1021.9 hPa | 0 mm | - | 768 W/m² | - |
| 1777824090 | 23.89° C | 53% | 1021.9 hPa | 0 mm | - | 757 W/m² | - |
| 1777823786 | 23.89° C | 51% | 1021.9 hPa | 0 mm | - | 742 W/m² | - |
| 1777823484 | 23.89° C | 50% | 1021.8 hPa | 0 mm | - | 731 W/m² | - |
| 1777823181 | 23.89° C | 53% | 1021.9 hPa | 0 mm | - | 721 W/m² | - |
| 1777822879 | 23.89° C | 50% | 1021.9 hPa | 0 mm | - | 708 W/m² | - |
| 1777822576 | 23.89° C | 48% | 1021.9 hPa | 0 mm | - | 694 W/m² | - |
| 1777822273 | 23.33° C | 52% | 1022 hPa | 0 mm | - | 682 W/m² | - |
| 1777821971 | 23.33° C | 55% | 1022 hPa | 0 mm | - | 668 W/m² | - |
| 1777821669 | 22.78° C | 50% | 1021.9 hPa | 0 mm | - | 650 W/m² | - |
| 1777821366 | 22.78° C | 51% | 1022.1 hPa | 0 mm | - | 644 W/m² | - |
| 1777821063 | 22.78° C | 52% | 1021.9 hPa | 0 mm | - | 626 W/m² | - |
| 1777820759 | 22.22° C | 51% | 1021.9 hPa | 0 mm | - | 609 W/m² | - |
| 1777820455 | 22.22° C | 53% | 1022.2 hPa | 0 mm | - | 595 W/m² | - |
| 1777820153 | 21.67° C | 52% | 1021.9 hPa | 0 mm | - | 582 W/m² | - |
| 1777819850 | 21.11° C | 53% | 1022 hPa | 0 mm | - | 566 W/m² | - |
| 1777819548 | 20.56° C | 57% | 1021.9 hPa | 0 mm | - | 551 W/m² | - |
| 1777819245 | 20.56° C | 55% | 1022 hPa | 0 mm | - | 147 W/m² | - |
| 1777818942 | 20.56° C | 59% | 1022.2 hPa | 0 mm | - | 172 W/m² | - |
| 1777818638 | 20° C | 59% | 1022.2 hPa | 0 mm | - | 74 W/m² | - |
| 1777818336 | 20° C | 59% | 1022.1 hPa | 0 mm | - | 136 W/m² | - |
| 1777818032 | 19.44° C | 60% | 1021.9 hPa | 0 mm | - | 215 W/m² | - |
| 1777817729 | 19.44° C | 63% | 1022 hPa | 0 mm | - | 70 W/m² | - |
| 1777817426 | 18.89° C | 65% | 1021.9 hPa | 0 mm | - | 93 W/m² | - |
| 1777817122 | 18.89° C | 66% | 1021.9 hPa | 0 mm | - | 70 W/m² | - |
* Rain latest hour (hover to see other rain measurements)
** Current wind speed in m/s (hover to see current wind gust speed)